Wind_Speed
25 25 25 25 24 24 24 24 24 24 24 23 23 22 22 22 22 23 24 25 26 27 27 27 28 28 27 26 25 24 25 24 23 22 14 10 15 19 19 21 22 21 19 18 17 16 14 13 11 12 14 15 15 16 15 15 15 16 17 18 18 16 13 12 9 7 8 7 9 11 11 10 9 9 8 7 7 7 6 7 7 8 11 11 10 11 11 9
25 26 26 26 25 25 25 25 25 25 24 24 23 23 23 22 22 23 23 24 25 25 26 27 28 29 28 27 26 26 26 25 25 20 11 12 18 19 20 22 23 23 21 20 19 18 17 15 12 12 14 15 16 17 16 16 17 17 18 18 17 14 12 12 9 8 9 9 10 12 12 10 9 8 8 6 6 7 7 8 8 9 11 10 10 10 9 7
26 26 26 26 26 26 26 26 26 26 25 25 24 24 23 23 22 22 23 23 23 24 25 25 27 28 28 28 27 28 27 26 25 19 14 18 19 19 21 23 24 24 23 23 22 21 20 17 15 13 14 16 17 18 18 17 17 18 19 18 16 14 13 13 10 8 8 10 12 13 13 10 8 8 7 7 6 7 7 8 8 9 10 8 8 8 6 5
27 27 27 27 27 26 26 26 26 26 26 26 25 24 24 23 23 22 22 22 22 23 23 24 25 26 26 26 27 27 27 27 25 20 19 21 20 21 22 22 23 24 24 25 25 24 22 20 18 16 15 16 18 18 19 18 18 19 20 18 14 13 14 14 11 8 7 9 11 13 13 10 8 8 8 7 7 8 8 9 10 10 9 7 6 6 4 2
27 27 27 27 27 27 27 27 27 27 27 27 26 25 24 24 24 23 23 22 22 22 22 24 24 24 25 25 26 26 25 23 21 21 21 21 22 22 22 22 22 23 25 26 26 25 24 23 21 19 18 17 18 19 19 18 18 20 19 16 14 14 16 15 11 8 7 7 9 11 11 9 10 9 7 7 8 8 9 9 10 11 9 7 5 4 2 0
26 27 27 28 28 28 27 27 28 28 27 27 27 26 25 25 24 24 24 23 22 22 22 23 23 23 23 24 24 24 23 18 15 18 19 21 22 22 21 22 22 22 24 26 26 26 26 25 24 22 20 18 18 18 17 18 19 19 19 16 14 15 17 14 11 9 8 8 7 8 10 9 9 7 5 6 7 6 7 7 6 7 8 6 3 1 0 2
26 27 27 27 28 28 28 28 28 28 28 27 27 27 26 25 25 25 24 23 23 22 22 22 22 22 22 24 23 23 23 17 14 16 14 15 18 20 22 22 22 22 22 23 24 24 25 25 25 23 22 20 18 16 17 19 19 20 19 15 14 16 17 14 12 10 9 9 6 8 11 9 8 7 5 5 4 4 5 5 4 5 5 3 1 1 2 4
26 26 27 27 28 28 28 28 28 28 28 28 27 27 27 26 26 26 25 24 23 23 22 22 22 22 22 23 22 23 21 14 15 20 17 13 14 17 21 23 23 22 21 21 20 21 23 24 24 24 24 22 18 17 18 19 20 21 18 15 15 17 17 15 14 11 9 8 6 9 10 7 7 7 6 4 2 2 3 3 4 6 4 3 1 1 2 3
26 26 26 27 28 28 29 28 28 28 28 28 28 27 27 26 27 26 26 25 24 23 22 23 22 22 22 22 22 23 18 13 16 21 21 19 16 15 18 22 23 23 22 21 21 22 22 22 22 22 23 22 19 18 18 19 20 20 17 16 16 17 18 16 16 13 10 8 7 10 9 7 7 6 6 4 3 3 2 2 6 8 6 4 3 3 2 2
25 26 26 27 28 28 28 28 29 29 28 28 28 28 27 27 27 27 26 26 25 24 23 23 22 23 23 22 23 21 16 16 18 19 21 21 19 17 16 19 23 23 22 22 22 22 20 20 20 21 22 22 21 19 19 18 19 18 15 17 17 17 19 19 18 14 11 8 7 10 9 8 8 7 6 4 4 3 1 5 10 11 8 6 6 7 7 6
25 26 26 27 27 28 28 29 29 29 28 28 28 27 27 27 27 27 27 26 25 24 24 24 23 24 23 23 23 18 15 17 17 18 20 20 19 19 18 18 21 22 23 22 22 20 19 20 21 22 22 22 21 19 19 17 18 18 15 16 18 19 19 20 19 14 11 9 8 9 10 9 9 9 8 4 4 2 2 10 13 13 10 8 7 8 10 9
25 26 26 27 26 27 27 28 28 28 28 27 27 27 27 28 27 27 27 27 26 25 25 24 25 24 24 25 20 14 16 18 17 17 19 20 18 19 20 18 19 22 23 22 22 22 21 22 24 23 21 22 21 18 17 18 19 19 15 14 16 19 19 20 19 14 12 10 8 8 8 9 9 9 8 5 3 2 6 13 14 14 11 10 10 9 11 12
25 25 26 26 26 26 27 27 28 28 27 27 27 27 27 27 27 27 27 26 26 26 26 26 26 25 26 25 17 14 17 18 18 17 17 20 19 19 21 20 21 23 25 25 25 24 23 24 25 24 22 19 19 17 15 18 20 18 18 15 13 15 17 20 19 14 12 11 9 8 7 10 10 7 5 4 3 3 8 14 15 14 12 12 12 10 12 13
24 25 25 25 25 26 26 26 27 27 26 26 27 27 27 27 27 27 26 26 26 26 26 27 26 26 27 23 16 17 19 18 17 16 17 19 20 21 21 21 22 24 26 27 27 27 26 27 26 26 24 19 18 17 14 17 19 18 17 16 14 12 14 19 18 13 12 12 11 9 9 11 9 5 4 4 4 5 9 15 17 15 13 14 13 10 12 13
23 24 24 24 24 25 25 25 26 25 25 26 26 27 27 27 27 26 26 26 26 27 27 27 26 27 27 21 18 19 19 19 16 15 19 21 21 22 22 21 21 22 25 26 27 27 28 29 28 27 25 21 18 18 15 15 18 18 15 14 16 12 11 16 16 13 12 13 12 10 12 12 8 6 5 5 7 9 11 15 17 16 14 15 14 11 11 12
23 23 23 23 23 24 24 24 24 24 24 25 25 26 27 27 26 25 26 26 27 27 27 27 26 26 25 20 19 20 18 18 17 18 21 22 23 24 22 21 20 20 22 24 26 27 28 29 29 26 26 23 20 19 18 15 16 19 16 12 15 15 11 12 13 13 14 14 15 13 11 8 5 6 6 6 9 12 14 14 15 16 15 16 16 12 11 11
23 23 23 23 23 23 23 23 23 23 23 24 25 26 27 26 25 26 26 27 26 26 27 27 26 25 23 18 18 20 19 20 21 22 21 21 24 26 25 22 20 20 21 23 25 27 28 29 29 27 27 26 23 22 19 15 15 18 18 13 13 16 14 11 11 15 16 14 17 16 14 9 5 5 6 7 9 11 14 14 14 15 15 16 17 13 10 10
23 22 22 22 22 22 22 22 22 22 22 23 24 25 26 25 25 26 26 26 26 27 27 26 26 24 21 18 18 18 19 22 22 22 22 23 24 26 27 23 21 22 22 23 25 27 27 28 29 28 28 28 26 25 22 18 17 17 19 17 13 15 16 13 11 14 16 15 17 17 16 15 8 5 7 7 7 8 11 13 15 16 15 15 17 14 11 9
23 22 21 21 21 20 20 20 20 21 21 22 23 23 24 24 24 25 26 27 27 26 25 24 24 23 18 17 19 18 17 20 24 24 24 24 25 26 28 26 25 23 23 24 25 26 27 27 29 30 32 32 30 28 23 18 16 15 16 19 16 14 16 15 12 12 13 13 16 18 16 15 12 10 10 9 8 6 7 12 16 16 16 16 16 15 12 10
22 21 20 20 19 19 19 19 19 20 20 20 21 21 22 22 23 24 25 26 25 25 25 23 22 22 20 18 16 17 18 20 24 25 24 24 25 26 27 28 27 26 25 25 25 26 27 28 33 35 34 32 29 28 23 16 15 14 14 19 20 15 14 15 13 11 12 11 13 17 17 15 13 14 14 13 12 9 5 9 17 18 17 17 16 14 13 11
19 19 19 18 18 18 18 17 17 18 18 17 19 19 19 20 21 22 23 24 23 24 26 25 24 23 23 22 17 15 19 22 23 24 25 25 25 26 28 28 28 28 26 24 24 25 27 30 33 34 32 29 26 24 23 19 16 16 15 18 21 18 14 13 12 10 11 12 12 15 17 16 15 17 17 15 12 9 5 6 14 19 19 18 16 13 13 12
18 17 17 17 17 16 16 15 15 16 15 16 17 17 17 18 19 20 21 22 23 24 26 26 28 26 22 23 21 18 21 24 23 24 26 27 28 29 28 28 28 28 27 25 25 27 29 30 31 30 29 28 25 22 22 21 18 17 17 17 19 20 17 12 11 11 10 12 13 14 17 17 17 18 18 15 10 7 5 6 13 20 20 18 16 14 14 13
17 16 16 16 15 14 14 13 14 14 13 14 15 15 15 16 17 19 19 22 22 22 25 25 26 26 23 22 22 22 24 24 23 25 28 29 30 29 29 28 28 27 28 28 29 29 30 29 28 29 28 27 25 23 22 22 21 20 20 19 18 20 19 13 12 13 10 10 11 13 17 17 17 17 17 15 10 8 8 10 13 19 21 18 16 16 16 15
16 15 15 14 14 12 11 12 12 12 12 12 13 14 15 15 16 17 17 20 22 21 22 23 25 26 24 21 22 25 25 24 24 26 29 31 30 29 28 27 26 27 28 28 29 29 28 26 27 29 29 26 25 26 25 25 24 23 22 20 19 19 17 13 12 12 10 9 10 13 14 12 14 16 16 15 11 10 11 12 14 17 19 18 17 18 18 16
15 15 14 13 12 10 10 11 11 10 11 12 13 13 14 14 13 13 13 15 19 20 19 21 24 24 23 23 24 25 25 25 24 25 29 31 30 30 28 24 25 27 28 26 26 26 25 24 27 30 29 28 26 26 27 26 24 23 23 21 20 18 14 13 11 9 9 8 11 15 10 6 12 16 16 15 13 12 13 14 15 17 19 18 17 18 19 17
15 14 14 13 11 9 9 10 9 9 12 12 13 14 13 11 9 8 9 9 15 17 17 18 20 20 22 25 26 25 25 26 25 24 29 31 29 30 28 25 25 26 26 25 23 24 23 23 28 30 29 30 29 26 26 25 22 22 24 22 20 16 13 12 9 7 8 7 13 18 10 5 11 16 17 16 14 14 14 14 15 16 18 18 18 18 19 17
15 14 13 12 10 8 8 8 9 11 13 13 14 13 11 8 6 5 4 5 10 12 13 16 17 16 20 24 27 27 24 22 25 26 29 32 30 29 28 27 27 26 27 26 22 22 24 24 28 31 30 30 31 29 26 24 22 21 23 23 21 17 14 10 8 8 7 6 12 17 14 9 10 16 19 19 16 14 14 14 14 15 17 18 19 20 19 18
14 14 13 12 10 8 7 8 10 12 13 13 12 10 8 7 6 3 1 1 2 4 7 14 17 16 18 22 28 30 23 17 24 29 29 31 31 29 28 28 28 27 29 29 24 23 25 26 28 31 31 31 31 30 27 24 22 21 21 23 22 19 15 11 9 9 8 7 9 15 17 11 8 16 21 20 18 15 13 13 13 15 17 17 18 19 19 18
14 13 13 13 11 8 7 9 12 13 12 12 10 9 9 9 7 5 3 1 1 2 3 9 16 19 20 23 27 30 25 14 18 27 28 30 31 28 27 27 27 27 30 32 27 24 26 27 27 29 32 32 29 27 25 23 22 21 20 20 20 19 17 14 12 10 9 7 7 15 19 9 5 15 21 19 18 16 13 13 12 14 16 17 17 18 19 19
14 14 13 14 12 9 9 10 11 12 12 12 11 11 11 11 10 6 2 3 3 1 2 7 16 21 21 24 28 30 27 15 14 24 28 30 30 27 25 24 25 28 28 30 27 22 24 26 26 27 28 26 23 23 24 22 21 20 20 19 17 17 17 15 14 11 7 6 7 14 18 11 5 12 19 19 18 16 14 13 13 13 14 15 17 17 18 18
14 14 15 15 13 10 10 10 10 11 12 13 13 13 14 13 10 6 2 5 3 2 1 7 15 22 22 24 29 31 29 18 15 24 30 31 31 27 25 23 25 26 24 26 25 20 19 22 26 28 26 22 19 21 24 24 23 22 21 21 17 13 13 11 12 11 6 4 7 12 15 10 5 10 18 19 17 16 15 14 13 12 12 13 14 15 15 16
14 15 16 15 13 11 11 11 11 13 14 15 16 16 17 12 10 10 4 4 4 1 2 3 12 21 22 24 29 32 31 21 16 24 31 34 34 31 29 27 28 25 21 24 26 22 19 18 21 23 25 25 22 21 24 26 27 24 22 25 18 9 8 7 6 6 4 3 6 11 13 7 6 13 20 19 17 16 14 13 12 11 11 11 10 11 12 14
14 16 16 15 13 12 13 12 12 15 16 18 19 19 18 9 7 16 12 5 1 3 2 2 9 18 20 24 30 32 30 21 17 24 31 33 35 34 31 29 31 28 23 26 27 23 19 16 18 20 22 28 27 25 28 29 30 28 26 27 19 8 5 5 3 2 2 3 6 10 11 7 7 13 19 19 17 15 13 12 11 10 10 9 8 8 9 10
15 17 17 15 14 13 13 13 14 16 18 21 21 20 19 9 4 13 16 8 4 8 5 4 4 11 17 22 28 32 31 21 17 25 29 31 33 34 31 28 29 28 25 25 24 21 17 15 20 24 22 27 29 25 27 30 30 29 27 25 21 12 8 5 4 3 3 4 7 9 7 7 8 10 15 18 15 13 12 11 9 9 10 9 8 8 7 7
16 18 17 16 15 14 14 15 16 18 21 24 24 23 21 14 6 6 10 10 7 10 9 9 4 7 13 20 24 30 33 23 19 26 29 31 32 33 33 29 27 27 25 22 20 19 17 14 21 25 21 25 28 23 22 25 27 28 26 24 23 18 13 9 6 7 8 6 4 5 3 6 10 10 13 16 15 14 12 11 10 10 10 10 9 8 6 5
16 17 16 17 16 15 15 16 16 19 23 26 26 26 25 19 12 5 4 8 6 9 10 11 8 9 13 20 23 28 33 26 21 27 29 30 31 30 32 29 27 28 25 21 19 19 16 11 18 25 20 20 25 23 22 23 24 28 28 25 24 19 13 12 9 8 10 6 2 3 2 6 10 9 12 15 15 15 12 11 12 11 12 11 9 7 5 4
15 15 16 18 17 15 15 15 16 19 23 27 28 27 25 22 16 7 3 7 3 7 9 9 7 9 14 20 22 26 33 29 23 26 28 28 28 29 31 28 27 28 23 19 18 20 17 10 16 25 20 18 23 23 21 21 23 28 31 29 25 17 12 12 9 4 5 3 1 2 2 6 8 7 14 18 16 15 14 13 14 13 12 11 9 7 6 5
14 15 17 18 17 14 14 15 17 20 23 28 29 26 23 23 20 12 7 6 2 6 10 9 4 7 13 19 21 25 31 28 24 25 27 26 23 25 30 27 26 27 22 16 14 18 20 10 13 24 22 21 25 22 21 23 21 24 30 30 24 15 12 13 8 5 5 3 2 2 1 7 12 11 17 22 19 18 17 15 15 14 12 10 9 8 7 7
14 15 16 18 18 16 15 17 19 22 25 29 30 27 24 22 21 18 11 5 4 7 8 8 4 3 9 18 22 25 29 28 25 23 25 25 19 21 29 28 26 25 22 18 13 17 21 11 11 23 25 22 23 22 23 26 22 20 26 30 25 17 15 13 8 7 8 4 2 3 0 8 17 17 19 23 22 20 19 17 17 14 11 9 8 8 8 8
15 15 16 20 20 17 17 20 23 25 27 29 29 27 24 20 19 17 12 5 4 6 6 6 5 2 4 13 20 25 29 28 26 22 21 25 20 19 29 29 24 25 23 19 15 15 19 13 12 20 24 22 22 22 22 25 25 23 28 32 25 18 18 14 8 8 9 5 4 4 1 9 19 18 18 24 24 21 20 19 17 13 10 8 7 7 8 9
15 15 18 21 20 17 18 21 24 25 26 28 27 25 23 18 16 17 14 9 8 9 7 7 8 7 5 8 17 26 29 27 27 22 19 25 22 17 27 31 25 24 25 23 20 16 14 13 13 17 20 20 21 22 19 20 24 25 28 32 26 20 20 14 6 6 9 7 7 7 2 9 21 20 19 24 25 23 21 19 16 13 10 9 8 9 10 11
16 17 19 21 19 17 18 21 24 24 25 26 24 23 21 17 16 17 14 11 10 9 8 4 5 9 7 8 17 25 30 27 26 23 18 23 23 14 20 30 26 24 26 25 23 17 12 11 13 15 17 17 18 20 18 17 22 22 23 29 27 21 21 15 8 9 10 7 9 9 3 7 20 24 21 23 23 23 22 20 17 14 11 11 11 12 12 13
17 18 19 20 19 18 20 23 25 25 25 23 21 20 19 15 16 15 11 8 8 7 9 1 6 9 8 11 18 26 31 27 24 23 18 19 22 14 15 25 27 24 25 26 24 20 13 9 12 15 13 11 14 19 19 19 22 22 21 26 27 23 21 16 13 16 15 12 11 9 3 6 18 25 23 21 21 23 23 21 19 16 14 13 14 14 14 14
17 17 18 20 19 19 21 23 24 24 23 20 19 19 17 16 16 14 11 9 7 8 9 4 6 8 8 13 20 25 30 27 23 23 19 18 22 16 13 21 26 25 25 25 26 23 15 10 12 12 9 9 10 13 16 19 23 23 21 23 24 24 23 17 14 18 17 15 16 11 4 7 18 24 25 22 22 22 20 19 19 18 16 15 15 15 14 13
18 16 18 20 19 19 22 22 21 21 20 19 18 17 16 16 14 13 13 9 6 10 11 6 5 8 10 15 20 24 27 27 25 23 20 19 20 17 14 19 24 25 23 22 24 23 16 12 13 10 5 5 6 7 14 19 21 21 20 21 22 23 23 18 16 17 14 15 18 14 8 12 19 23 25 25 24 22 18 17 19 19 17 16 15 14 14 14
19 17 19 21 20 20 21 20 19 19 18 18 17 15 16 15 10 11 13 6 5 11 9 4 4 10 15 19 21 24 26 25 25 23 20 19 18 15 14 19 24 25 22 21 22 23 18 14 13 11 7 7 6 9 17 21 21 20 19 20 22 23 22 19 17 17 15 16 18 15 11 13 18 20 23 25 24 21 18 17 19 19 16 14 13 12 13 13
18 17 18 20 20 19 20 19 18 19 18 16 15 14 15 13 9 11 11 4 6 9 3 2 4 11 20 23 24 25 25 23 23 21 20 20 18 15 15 18 22 24 23 21 21 22 21 17 15 13 10 8 8 11 18 20 21 20 19 19 21 22 22 19 17 16 16 15 14 16 15 12 13 16 18 20 20 20 18 18 19 18 16 15 13 11 11 9
17 16 16 16 15 16 18 17 16 17 17 16 15 13 14 11 9 11 8 3 7 7 2 1 4 9 18 23 24 27 26 23 24 23 22 23 20 18 18 16 18 22 22 21 21 23 22 19 17 15 12 10 10 12 15 18 19 19 19 19 20 21 21 20 18 16 15 13 12 15 15 12 12 14 15 16 18 18 17 17 18 16 15 13 10 9 8 6
16 15 16 16 14 13 16 16 15 16 16 16 15 14 13 10 9 11 9 4 5 4 1 4 7 10 18 21 23 26 25 25 27 26 26 25 22 21 19 16 17 20 20 20 22 23 21 19 19 17 14 13 13 14 14 15 16 18 18 19 19 19 19 19 19 17 15 14 13 13 15 15 15 15 15 16 18 18 17 17 18 17 14 11 8 6 5 4
15 14 16 18 14 13 16 17 16 16 15 15 16 14 12 9 9 13 10 5 4 3 1 5 7 10 16 20 22 25 23 23 26 27 28 27 24 23 20 17 18 19 18 20 22 21 20 19 19 19 17 16 17 17 15 13 14 16 18 19 18 18 19 18 19 18 16 15 13 13 16 18 17 17 17 17 19 19 18 19 20 17 12 9 7 5 3 1
16 15 17 19 15 13 18 18 17 16 15 15 16 15 13 12 12 14 12 6 4 3 2 4 7 11 14 17 20 21 22 23 26 27 28 26 25 23 20 18 18 17 17 18 19 18 17 18 21 20 17 16 18 18 16 15 14 14 17 19 17 17 17 17 17 16 15 15 14 15 18 18 18 19 19 20 20 19 18 20 20 15 12 10 7 5 4 3
16 13 16 19 16 15 19 19 17 17 15 14 16 15 14 15 15 15 13 8 5 5 5 4 6 8 12 15 17 18 19 23 26 27 25 24 22 20 18 18 18 16 17 17 16 16 14 15 21 21 16 16 18 18 18 17 12 10 15 19 18 16 15 14 13 13 12 13 13 14 17 17 18 20 22 23 21 19 19 19 18 14 12 10 8 7 6 5
Wind_Direction
260 259 258 258 258 256 253 251 250 248 247 246 246 247 247 247 247 248 248 249 249 248 249 249 251 251 252 252 252 252 252 252 251 250 249 243 241 241 238 234 230 224 220 218 217 218 220 222 226 226 226 226 226 228 230 230 229 230 230 230 229 223 206 182 164 141 125 129 148 145 139 143 154 167 164 161 172 166 160 173 177 178 172 166 164 162 161 164
260 259 257 256 256 256 255 253 251 250 249 246 245 245 245 245 245 246 247 248 248 249 249 249 250 251 251 251 252 252 252 252 252 252 247 238 237 236 236 233 229 224 219 218 218 219 221 224 226 225 223 223 224 225 226 227 227 228 231 232 227 214 191 172 157 139 129 122 134 141 136 140 148 159 170 171 182 176 162 171 176 173 172 168 165 162 160 168
259 258 258 256 254 254 255 254 252 251 250 248 246 246 245 244 244 245 246 247 248 248 249 249 249 250 250 250 251 252 252 252 253 252 241 238 238 236 235 233 229 225 219 218 219 220 222 224 226 226 223 222 224 224 225 226 226 227 230 231 221 208 187 169 157 144 138 124 124 132 130 132 138 148 161 158 161 168 159 157 162 168 166 161 161 159 159 176
260 258 258 257 255 254 253 253 252 251 250 249 247 246 246 245 244 243 244 245 246 247 247 248 249 250 250 249 250 251 252 253 254 250 242 240 239 236 234 233 232 226 222 220 220 221 222 224 227 228 224 224 224 224 225 225 227 229 230 227 219 208 186 171 167 160 152 133 125 131 127 118 121 129 136 130 129 141 143 144 145 145 147 151 154 149 147 171
261 259 258 257 256 255 253 253 252 251 250 249 248 246 246 245 245 244 243 243 244 244 244 246 247 248 249 249 249 249 251 256 256 249 244 240 236 234 231 231 232 226 223 223 223 223 223 224 226 228 227 226 225 224 225 225 228 231 232 228 219 205 185 177 179 172 168 153 135 139 137 126 125 124 121 123 128 132 131 138 145 145 147 152 152 148 138 280
261 260 258 257 256 255 254 253 252 252 251 250 249 247 246 245 245 245 244 243 243 243 243 244 245 246 247 248 248 248 247 249 253 249 243 237 233 231 229 228 230 227 224 224 225 225 226 225 225 226 227 229 229 226 225 227 230 233 236 228 217 205 186 180 185 181 179 168 155 152 149 143 139 134 129 139 140 136 133 136 145 155 158 159 160 162 340 309
262 260 259 258 256 255 254 253 253 252 251 250 249 248 246 245 245 245 245 244 243 243 243 244 245 245 245 246 246 246 244 240 243 245 237 233 231 227 226 224 225 226 223 223 225 226 227 226 224 224 226 229 230 228 225 227 230 234 236 225 217 206 184 180 188 188 185 178 175 162 155 153 149 141 144 159 150 140 141 140 154 173 175 173 181 300 306 284
262 260 259 258 256 255 254 253 253 253 252 250 249 248 247 245 245 245 244 244 244 243 243 244 244 244 244 244 244 244 243 233 232 238 233 225 225 222 222 221 221 223 221 221 223 225 226 225 223 222 224 227 227 227 226 225 229 233 233 225 221 207 189 191 194 191 196 198 190 168 162 160 157 147 144 165 184 169 159 145 171 183 189 197 203 293 272 255
261 260 258 257 256 255 254 253 253 252 252 252 250 248 247 246 246 245 244 244 244 243 243 243 243 243 243 244 244 244 240 225 222 231 234 226 220 220 219 218 218 219 218 216 217 219 221 221 221 221 223 225 225 227 228 225 229 234 233 228 225 212 206 210 202 200 208 209 197 175 171 168 165 155 145 170 213 211 243 181 175 179 182 184 145 88 94 131
261 259 258 256 255 255 254 253 253 252 252 252 251 250 248 246 245 245 245 244 243 243 243 243 243 242 242 242 243 242 236 230 226 227 233 230 222 220 218 216 216 217 216 214 216 218 218 217 217 219 222 223 223 226 226 223 228 234 233 227 226 221 221 219 206 207 214 208 195 180 179 179 168 160 159 185 218 237 266 170 173 179 176 168 130 85 85 108
262 259 258 256 255 254 253 253 252 251 251 250 250 250 248 246 245 245 245 244 243 243 243 243 243 242 242 241 241 240 234 233 232 225 229 231 224 220 218 214 212 213 212 212 215 215 213 212 212 214 218 220 219 225 226 221 223 230 232 227 226 227 225 218 207 208 216 206 189 187 191 182 165 169 180 192 219 249 169 166 176 181 175 165 139 90 85 100
263 260 258 257 256 255 253 252 251 251 250 249 249 248 248 246 245 244 245 244 243 243 243 242 243 242 242 241 238 236 235 232 230 224 223 227 224 219 218 212 207 207 206 208 212 211 208 208 209 209 213 217 216 220 222 217 219 222 225 227 229 232 227 216 208 209 215 205 188 194 198 187 181 185 189 197 221 224 164 172 183 183 176 165 148 106 89 92
264 261 259 258 256 255 254 252 251 250 249 249 247 247 247 246 244 244 244 244 243 243 243 243 243 242 243 242 233 225 231 228 225 220 217 221 220 217 217 212 205 202 201 203 206 206 206 206 207 206 207 211 211 213 213 212 216 217 218 224 230 236 230 214 208 211 214 203 190 198 199 189 195 197 192 204 222 208 179 182 186 184 180 165 149 117 93 86
267 262 259 258 256 255 254 252 251 249 248 247 246 246 246 245 244 243 243 243 243 242 242 243 243 243 244 241 229 225 228 226 222 216 215 216 214 214 216 213 207 204 203 203 204 203 203 204 205 205 203 203 204 204 203 207 212 211 213 220 221 226 225 213 208 213 213 205 197 198 200 192 194 209 211 209 209 205 191 188 187 183 177 163 148 126 100 87
270 263 259 257 255 255 253 252 250 248 247 246 245 245 245 244 243 243 243 242 242 242 242 243 244 245 246 239 229 228 226 225 219 210 214 212 208 211 214 214 210 206 205 205 206 204 203 202 202 204 201 198 200 197 193 198 204 203 202 210 214 211 208 205 208 213 209 209 204 193 203 209 211 225 223 206 202 197 188 186 184 178 175 164 151 138 111 97
272 264 259 256 255 254 253 251 249 247 246 244 244 244 244 244 243 243 242 241 241 241 242 243 243 246 247 239 230 229 223 221 214 206 212 209 204 206 209 211 209 207 207 206 207 207 206 204 202 203 199 195 196 192 185 184 190 197 197 198 207 202 187 191 203 206 202 205 202 190 201 207 178 189 201 196 198 192 183 182 180 176 173 164 155 148 125 113
273 265 258 257 255 254 253 250 248 246 244 243 243 244 244 244 244 243 242 242 242 241 241 242 242 245 246 237 230 229 220 215 211 207 209 208 204 203 205 206 205 206 207 206 208 207 206 205 202 200 197 194 193 189 184 183 182 187 191 185 194 199 188 183 190 194 197 199 195 193 204 204 156 149 179 192 194 187 182 180 178 176 172 165 157 155 149 136
271 263 257 257 256 254 252 249 246 244 242 242 243 244 244 244 243 243 243 242 241 240 241 240 240 242 243 234 230 228 218 213 211 207 207 207 203 202 204 203 204 206 206 206 208 207 205 205 203 200 197 195 193 190 189 192 182 177 186 181 178 193 195 190 182 188 199 201 198 197 207 218 210 168 169 180 178 174 178 181 181 177 177 173 158 156 172 162
268 260 256 257 256 254 251 247 244 242 242 242 243 244 245 244 244 244 243 242 240 240 241 240 238 238 235 231 229 225 217 212 212 208 206 207 203 202 202 202 204 206 206 207 206 207 206 202 200 199 197 196 195 195 195 195 185 175 187 190 182 185 194 193 181 184 192 197 203 202 207 219 214 192 192 200 203 204 191 188 189 182 182 180 159 162 185 178
266 258 255 257 255 252 249 245 243 242 242 242 244 244 244 244 244 245 244 243 242 241 242 239 236 233 227 224 223 220 216 213 212 207 204 206 204 202 202 202 204 205 208 210 209 208 207 205 204 202 201 198 197 199 198 192 187 183 186 195 195 188 188 189 183 188 193 194 203 207 211 215 208 204 209 216 225 236 228 197 195 189 190 186 170 176 192 182
263 256 255 256 253 251 247 245 244 243 242 242 243 243 242 244 245 246 247 246 243 240 240 237 234 230 222 220 215 209 212 213 212 206 201 203 202 202 204 204 205 206 206 209 212 212 209 209 210 208 205 200 197 200 200 195 193 193 190 193 197 195 191 185 183 191 197 201 204 207 212 212 207 207 208 213 222 235 245 213 195 192 196 196 186 189 193 184
259 254 253 253 250 248 246 245 244 242 241 240 241 242 242 243 245 247 249 247 242 239 239 237 235 228 218 218 216 210 212 212 208 202 199 199 199 200 204 205 207 207 206 206 208 208 208 211 211 208 202 197 195 197 200 200 196 194 189 186 189 196 198 191 188 192 194 205 210 210 211 210 209 205 204 209 212 216 216 191 185 189 197 202 195 190 191 190
257 251 250 249 246 246 244 242 240 238 236 236 237 239 240 241 243 245 248 248 244 239 239 238 236 230 218 215 217 216 215 212 205 199 197 198 197 199 203 206 206 207 209 208 206 204 206 208 207 202 197 193 194 194 197 199 196 190 185 180 179 191 200 197 192 197 198 204 213 213 210 210 209 203 201 203 196 191 183 166 170 184 194 198 190 184 189 194
255 248 246 244 242 243 242 237 234 232 230 230 232 234 236 237 240 243 248 254 251 241 237 237 237 231 220 213 217 218 216 213 207 198 196 196 195 197 203 206 206 207 210 211 210 210 211 208 200 196 193 191 196 197 198 200 198 194 187 180 180 188 198 193 186 196 203 208 215 204 194 195 197 197 198 192 183 184 177 166 166 174 184 187 183 184 188 195
250 244 241 236 237 241 237 233 228 224 221 220 224 228 232 233 239 247 252 264 263 248 236 236 236 230 218 212 215 215 215 214 205 198 197 195 194 195 197 203 206 207 208 208 207 208 211 207 193 189 191 194 199 200 201 204 204 203 196 185 184 188 188 187 185 193 201 207 207 192 171 160 177 183 187 179 175 181 176 172 173 175 180 182 182 184 189 195
245 239 235 229 233 237 234 229 218 211 210 210 215 220 227 231 236 252 258 277 278 259 240 235 233 228 218 212 208 207 216 215 200 196 197 192 194 198 196 198 205 207 204 199 199 201 202 198 190 189 193 197 201 201 204 206 205 208 204 191 190 192 188 192 194 195 199 197 193 190 178 139 161 170 172 168 170 177 174 174 180 183 183 184 183 185 191 197
241 235 230 223 225 233 229 218 204 200 202 204 210 215 221 224 222 244 263 290 283 261 239 227 220 216 212 207 202 202 211 209 195 196 197 190 192 199 201 202 201 202 197 188 188 196 192 185 186 192 198 200 201 202 205 206 205 211 206 198 202 203 195 197 208 211 209 190 188 195 186 150 152 166 164 161 166 171 176 179 181 185 186 187 188 190 195 199
237 231 226 216 218 228 216 202 197 195 199 203 205 207 205 197 197 205 185 336 282 230 220 215 207 204 203 199 200 203 203 198 196 198 194 189 192 198 204 208 205 199 195 190 187 189 187 185 190 195 199 202 203 204 206 207 209 213 209 206 211 213 206 210 224 221 210 192 188 192 183 158 150 167 161 159 162 162 171 179 178 183 187 190 193 195 201 204
234 228 218 208 213 218 201 196 196 193 196 198 194 190 183 175 172 161 148 203 210 169 204 202 197 199 200 194 196 203 202 197 201 198 190 187 190 196 203 208 207 199 196 198 196 190 192 197 199 200 202 205 205 206 209 211 211 212 212 212 214 215 214 218 225 220 211 209 193 182 178 163 152 167 160 160 165 160 161 167 170 180 187 192 196 199 204 207
229 221 209 202 206 206 196 196 194 190 191 188 184 178 171 171 172 158 154 192 163 108 205 193 191 195 198 195 192 197 200 198 197 194 189 186 188 195 200 203 204 199 196 199 199 196 198 201 203 205 208 208 207 209 212 212 213 212 210 208 204 205 209 215 221 217 211 210 187 179 177 164 159 171 164 163 168 167 163 162 165 174 184 194 200 204 208 211
223 214 202 197 199 199 197 195 190 187 186 183 177 172 171 172 173 166 177 198 178 47 182 197 196 195 197 197 192 191 194 194 192 191 187 184 186 193 195 194 195 195 195 195 196 199 199 198 204 209 208 203 203 210 211 209 209 208 205 198 190 188 193 205 215 210 202 189 173 177 179 169 160 173 170 169 170 169 168 166 169 176 185 195 203 211 217 222
216 206 197 193 193 195 198 194 188 188 186 181 174 172 173 172 186 199 194 183 204 342 25 202 205 201 198 198 196 191 189 189 190 193 189 183 186 192 193 193 189 184 187 193 195 199 198 197 202 208 207 202 202 206 205 205 204 201 198 191 181 169 174 187 207 206 197 181 164 170 173 160 145 167 173 174 173 169 164 164 171 180 188 194 204 214 223 233
209 199 194 191 189 194 198 193 190 191 187 179 176 175 176 179 214 211 197 151 161 303 313 203 209 208 203 199 197 191 187 188 186 191 192 187 188 193 195 197 194 188 187 192 195 196 197 201 197 193 196 199 203 203 199 199 198 195 193 189 180 161 161 169 171 188 184 173 167 166 164 145 142 168 173 170 170 167 158 158 167 177 185 190 199 210 224 236
203 195 194 189 187 196 197 193 194 194 187 181 179 178 184 200 222 210 212 213 305 307 241 173 184 211 212 205 197 189 186 189 186 187 192 190 190 194 195 198 198 195 192 191 194 193 191 202 197 186 185 192 197 203 203 199 196 194 193 191 188 178 170 165 162 168 148 144 160 164 162 150 152 171 173 164 164 163 158 162 172 179 185 192 199 211 227 237
199 196 193 186 189 198 196 195 197 194 189 184 183 186 195 206 194 201 224 219 273 292 217 185 197 219 215 206 200 193 189 189 185 186 192 194 195 197 197 198 196 196 196 190 188 192 194 206 199 186 184 190 190 192 198 197 195 192 191 195 196 189 176 158 150 159 148 130 149 161 156 160 163 179 180 166 165 167 166 174 182 183 187 191 201 211 222 231
199 196 190 187 192 197 195 199 199 195 193 188 188 196 204 207 195 193 217 195 249 275 211 204 232 230 214 202 199 197 194 193 187 185 192 197 200 201 200 200 196 196 200 191 181 183 187 200 198 186 182 188 189 186 186 190 192 189 190 197 195 188 177 159 140 145 154 149 164 156 139 165 168 185 190 176 173 175 175 183 188 190 190 190 195 201 208 218
198 194 191 191 193 194 197 201 197 195 196 193 196 204 209 211 203 193 172 169 253 283 227 234 245 215 206 198 196 194 192 193 189 186 192 196 200 203 201 200 195 195 199 195 187 184 177 175 190 187 176 176 188 190 188 191 195 193 193 192 185 179 183 171 145 124 153 147 148 156 174 184 172 182 191 187 184 183 182 188 193 196 193 187 186 193 202 213
194 192 193 192 190 191 197 201 197 195 195 197 203 210 216 216 209 207 193 162 354 303 237 239 240 191 199 199 195 191 190 190 185 185 192 193 198 203 200 195 194 195 192 186 186 185 179 168 176 182 176 172 184 192 193 196 201 203 199 191 184 182 182 172 157 154 161 127 109 148 249 212 193 185 190 191 193 192 188 191 199 199 194 190 194 203 212 219
189 190 193 190 187 190 195 196 196 195 196 200 207 212 217 218 212 214 210 183 330 305 223 224 257 196 197 202 197 190 190 193 187 184 190 191 192 198 197 194 194 193 185 179 177 177 180 171 158 178 185 182 184 190 195 197 196 201 198 191 190 193 183 172 163 160 158 139 138 149 304 224 201 192 194 197 201 199 194 196 201 199 197 201 209 218 226 233
186 189 193 188 188 193 195 194 193 195 198 203 210 213 215 221 216 207 199 194 286 281 220 227 268 267 199 209 204 190 189 195 191 187 190 191 189 192 196 198 197 190 183 182 181 172 176 172 153 174 187 189 191 195 198 197 189 186 188 186 185 183 175 170 168 163 161 147 138 144 187 214 200 196 200 202 205 204 200 202 203 200 203 212 219 228 237 247
183 189 191 188 191 198 198 195 194 196 200 205 212 214 215 223 216 198 195 216 262 271 241 233 252 276 290 231 210 195 189 193 192 187 188 191 190 193 198 200 199 192 186 187 189 178 169 163 152 163 177 184 193 197 199 199 191 185 185 184 180 173 169 168 167 170 167 157 156 162 184 199 192 192 198 203 208 208 203 204 205 203 207 214 221 232 241 250
181 187 187 186 193 199 198 195 195 198 204 207 211 213 216 224 214 203 204 224 261 261 226 229 287 295 287 219 205 198 190 190 190 189 187 188 191 194 198 199 198 194 190 188 188 182 163 148 140 145 163 177 191 194 192 192 190 187 187 186 184 182 180 179 178 174 161 143 155 166 174 193 189 192 199 205 210 210 206 206 207 206 207 214 223 231 238 245
179 185 184 186 194 198 196 195 196 199 203 208 209 210 217 219 209 209 215 229 257 231 199 237 336 309 271 205 198 198 193 190 191 195 196 192 194 196 195 196 195 195 194 191 191 188 177 160 138 125 130 149 170 181 183 183 184 185 187 188 190 195 198 199 201 188 169 147 149 159 162 193 191 195 203 206 206 208 209 209 209 208 209 217 225 229 234 241
175 184 186 188 193 197 197 197 199 200 200 204 207 208 213 211 207 219 227 227 237 210 203 263 307 276 244 200 195 197 193 189 189 198 206 204 202 203 197 191 191 193 194 194 196 192 187 181 160 132 109 120 142 164 174 178 183 185 187 188 191 197 200 202 199 187 175 164 163 166 169 184 190 197 204 207 207 207 208 207 207 209 211 217 224 228 233 236
174 180 186 191 194 196 197 197 199 200 198 199 201 205 211 211 212 226 223 217 226 219 227 270 270 231 211 192 192 194 192 191 189 193 204 204 200 202 194 182 183 188 190 193 197 195 190 188 177 162 140 135 138 160 171 174 179 185 190 190 190 193 196 196 186 177 178 178 175 177 176 174 184 195 204 210 212 209 205 203 206 210 213 217 223 230 234 234
179 181 184 189 194 195 196 196 195 194 195 197 198 202 208 209 211 215 210 205 225 226 241 282 215 191 182 184 190 187 188 193 189 188 196 195 188 188 180 172 175 181 182 185 191 194 194 189 182 179 165 137 130 159 174 178 178 181 187 190 192 192 194 197 189 179 185 185 182 190 195 183 184 193 202 209 210 206 203 206 210 213 216 220 225 234 238 237
185 188 187 188 191 195 195 192 188 188 190 193 196 198 202 204 196 196 201 207 218 222 269 339 199 174 169 179 187 183 180 186 187 185 186 184 179 172 165 166 173 178 180 181 182 189 195 187 177 179 172 149 135 150 169 180 182 183 186 189 193 194 194 198 197 190 189 186 185 194 201 201 197 195 202 207 202 199 204 212 214 214 218 222 222 230 241 246
187 188 189 189 190 194 194 188 183 187 187 186 190 193 197 197 180 181 195 210 209 223 315 46 182 171 170 177 183 180 177 178 180 179 177 174 169 161 156 160 170 175 181 183 180 185 193 186 176 178 172 160 151 149 160 172 179 183 185 187 191 194 197 201 203 201 196 195 202 200 197 204 202 196 203 205 200 202 209 214 213 211 218 230 232 235 249 265
186 184 185 189 190 189 190 186 185 189 189 187 188 187 190 188 173 182 196 188 193 228 334 134 151 160 171 178 181 179 176 175 175 173 173 172 165 159 155 155 164 172 180 184 181 183 187 180 176 180 174 162 159 156 157 165 171 172 175 180 183 188 193 197 202 206 203 205 217 210 201 203 197 193 200 199 202 209 209 207 210 212 222 242 250 245 255 280
183 183 184 186 189 189 186 185 187 190 191 193 190 183 183 181 170 181 185 147 154 216 196 133 130 136 157 171 176 176 177 181 181 176 174 174 169 164 160 155 157 162 171 179 180 183 184 175 173 180 172 158 160 162 159 166 173 169 170 174 177 182 189 193 199 204 204 208 214 209 207 208 200 197 199 195 201 211 205 202 209 217 229 242 244 236 237 250
181 187 187 182 183 188 185 184 186 188 190 194 190 179 175 169 161 171 175 141 124 173 159 120 111 118 138 153 161 166 170 176 177 173 173 174 171 170 168 164 161 159 163 173 178 183 184 175 173 177 167 152 159 163 159 166 175 172 170 171 171 175 184 192 198 201 204 210 210 205 208 213 211 207 201 195 202 211 210 210 215 221 228 227 222 219 203 169
178 190 190 181 180 182 182 182 184 185 187 190 187 177 167 161 155 158 163 153 125 119 121 114 103 118 140 143 141 144 151 158 161 162 166 169 169 171 171 168 167 165 166 173 177 180 184 178 176 176 162 148 157 161 159 163 168 167 169 171 170 171 175 183 189 192 200 210 213 211 213 216 217 212 203 198 200 202 207 217 220 220 228 229 219 213 203 184
Height
3077 3078 3078 3078 3079 3079 3079 3079 3080 3080 3081 3082 3082 3083 3084 3085 3086 3087 3087 3088 3090 3091 3092 3093 3094 3095 3096 3098 3099 3100 3101 3102 3104 3106 3110 3112 3111 3110 3111 3112 3113 3115 3117 3118 3119 3120 3121 3122 3123 3124 3126 3127 3128 3129 3129 3130 3132 3132 3133 3134 3135 3137 3139 3141 3142 3143 3144 3144 3145 3146 3147 3148 3149 3150 3151 3152 3153 3154 3155 3155 3156 3157 3158 3159 3160 3161 3161 3162
3075 3075 3075 3075 3076 3076 3076 3077 3077 3077 3078 3079 3079 3080 3081 3082 3083 3084 3085 3086 3087 3088 3089 3090 3091 3092 3094 3095 3096 3097 3098 3100 3101 3105 3109 3108 3107 3108 3109 3109 3110 3113 3115 3117 3118 3119 3120 3121 3122 3123 3124 3125 3126 3127 3128 3129 3130 3131 3132 3133 3135 3136 3138 3140 3142 3143 3144 3144 3144 3145 3146 3147 3149 3150 3151 3152 3153 3153 3154 3155 3156 3157 3158 3159 3160 3160 3161 3161
3071 3072 3072 3072 3073 3073 3074 3074 3074 3075 3075 3076 3077 3078 3079 3080 3081 3081 3082 3083 3085 3086 3087 3088 3088 3090 3091 3093 3094 3094 3096 3097 3099 3103 3106 3104 3105 3106 3106 3107 3108 3110 3113 3115 3116 3117 3118 3119 3121 3122 3123 3124 3125 3126 3127 3128 3129 3130 3131 3132 3134 3136 3138 3140 3141 3142 3143 3144 3144 3145 3146 3147 3148 3149 3151 3152 3152 3153 3154 3155 3156 3157 3158 3158 3159 3160 3160 3161
3068 3069 3069 3069 3070 3070 3071 3071 3071 3072 3072 3073 3074 3075 3076 3077 3078 3079 3079 3081 3082 3083 3084 3085 3085 3087 3088 3090 3091 3092 3093 3095 3097 3101 3101 3101 3103 3103 3104 3105 3106 3109 3111 3112 3113 3115 3117 3118 3120 3121 3122 3123 3124 3125 3126 3127 3128 3129 3130 3131 3133 3135 3137 3139 3140 3141 3142 3143 3144 3144 3145 3146 3147 3149 3150 3151 3152 3153 3153 3154 3155 3156 3157 3158 3158 3159 3159 3160
3065 3065 3066 3066 3067 3067 3068 3068 3068 3069 3069 3070 3071 3072 3073 3074 3075 3076 3077 3078 3079 3080 3081 3082 3083 3084 3086 3087 3088 3089 3091 3093 3095 3097 3098 3099 3100 3100 3102 3103 3104 3107 3108 3109 3112 3113 3115 3117 3118 3120 3121 3122 3123 3124 3125 3127 3127 3127 3129 3131 3133 3135 3136 3138 3139 3140 3141 3142 3143 3143 3144 3145 3146 3148 3150 3151 3152 3153 3153 3154 3154 3155 3156 3157 3158 3158 3159 3159
3061 3062 3063 3063 3064 3064 3065 3065 3065 3066 3066 3067 3068 3069 3070 3071 3072 3073 3074 3075 3076 3077 3079 3079 3080 3081 3083 3084 3085 3086 3088 3091 3093 3093 3094 3095 3096 3098 3100 3101 3102 3104 3106 3107 3109 3111 3113 3115 3117 3118 3120 3121 3122 3123 3125 3125 3126 3127 3128 3130 3132 3134 3135 3137 3138 3139 3140 3140 3142 3142 3143 3144 3145 3147 3148 3150 3151 3152 3153 3153 3154 3155 3156 3156 3157 3157 3158 3158
3058 3058 3059 3060 3060 3061 3061 3062 3062 3063 3063 3064 3065 3066 3067 3068 3069 3070 3071 3072 3073 3075 3076 3077 3078 3079 3080 3081 3082 3083 3085 3090 3091 3090 3091 3093 3094 3096 3097 3099 3100 3102 3104 3106 3107 3109 3111 3113 3115 3117 3118 3119 3121 3123 3123 3124 3125 3126 3127 3130 3131 3133 3135 3136 3137 3138 3138 3139 3140 3142 3143 3144 3145 3146 3147 3149 3151 3151 3152 3153 3154 3155 3155 3156 3156 3157 3157 3157
3055 3055 3056 3056 3057 3057 3058 3058 3059 3060 3061 3061 3062 3063 3064 3065 3066 3067 3068 3069 3071 3072 3073 3074 3075 3076 3077 3078 3080 3080 3083 3089 3089 3087 3089 3091 3092 3093 3095 3096 3098 3100 3102 3104 3106 3108 3109 3111 3113 3115 3117 3118 3120 3121 3122 3123 3124 3124 3126 3129 3130 3132 3134 3135 3136 3137 3138 3139 3140 3141 3142 3143 3144 3145 3146 3148 3149 3150 3151 3152 3153 3154 3155 3156 3156 3156 3156 3156
3051 3052 3052 3052 3053 3054 3054 3055 3056 3057 3058 3058 3059 3060 3061 3062 3063 3064 3065 3066 3068 3069 3071 3071 3072 3073 3074 3076 3077 3078 3082 3086 3085 3085 3087 3089 3090 3092 3093 3094 3096 3098 3100 3102 3104 3105 3107 3109 3112 3114 3116 3117 3119 3119 3120 3122 3122 3123 3126 3128 3129 3131 3132 3133 3134 3136 3137 3138 3140 3141 3142 3142 3143 3144 3145 3147 3148 3149 3150 3151 3153 3154 3155 3156 3156 3156 3155 3155
3048 3048 3048 3049 3050 3050 3051 3052 3053 3054 3055 3055 3056 3057 3058 3059 3060 3061 3062 3063 3065 3066 3068 3068 3069 3070 3071 3073 3074 3077 3081 3082 3082 3083 3084 3086 3088 3090 3091 3093 3094 3097 3099 3100 3102 3104 3106 3109 3111 3113 3114 3115 3117 3118 3118 3120 3122 3123 3125 3127 3128 3129 3131 3132 3133 3135 3136 3138 3139 3140 3141 3142 3143 3144 3145 3146 3147 3148 3149 3151 3152 3153 3155 3155 3156 3156 3155 3155
3044 3045 3045 3045 3046 3047 3048 3049 3049 3050 3051 3052 3053 3055 3056 3056 3057 3058 3060 3061 3062 3064 3065 3065 3067 3067 3069 3070 3072 3076 3079 3079 3080 3082 3082 3084 3086 3088 3089 3091 3093 3095 3097 3099 3101 3103 3105 3107 3108 3110 3112 3113 3115 3116 3117 3119 3121 3122 3124 3125 3126 3128 3129 3131 3132 3134 3136 3137 3139 3140 3141 3142 3143 3144 3145 3146 3147 3147 3149 3150 3152 3153 3154 3155 3156 3156 3155 3154
3041 3041 3042 3042 3043 3043 3044 3045 3046 3047 3048 3049 3050 3052 3052 3053 3054 3056 3057 3058 3060 3061 3062 3063 3063 3065 3066 3067 3071 3075 3076 3076 3078 3079 3081 3083 3084 3086 3087 3089 3090 3093 3095 3097 3099 3101 3103 3105 3106 3108 3110 3111 3113 3115 3116 3118 3119 3121 3122 3124 3125 3126 3128 3130 3132 3134 3135 3137 3138 3139 3140 3141 3142 3143 3144 3145 3146 3147 3148 3150 3151 3152 3153 3155 3155 3156 3155 3154
3038 3038 3038 3039 3039 3040 3041 3042 3043 3044 3045 3046 3047 3048 3049 3051 3052 3053 3054 3056 3057 3058 3059 3060 3061 3062 3063 3064 3070 3073 3072 3073 3075 3077 3079 3081 3082 3084 3085 3087 3088 3090 3092 3094 3096 3098 3101 3102 3104 3106 3108 3110 3112 3113 3114 3116 3118 3119 3122 3123 3125 3126 3127 3129 3131 3133 3134 3136 3137 3138 3139 3140 3142 3143 3143 3144 3145 3146 3148 3149 3150 3152 3153 3154 3155 3155 3155 3155
3035 3035 3035 3036 3036 3037 3037 3038 3039 3041 3042 3043 3044 3045 3046 3048 3048 3050 3052 3053 3054 3055 3056 3057 3058 3059 3059 3063 3069 3069 3069 3071 3073 3076 3078 3079 3081 3082 3083 3085 3086 3087 3089 3091 3093 3095 3098 3100 3102 3104 3106 3108 3110 3111 3113 3115 3116 3118 3121 3123 3124 3125 3127 3129 3130 3132 3134 3135 3136 3138 3139 3140 3141 3142 3142 3143 3144 3146 3147 3148 3150 3151 3152 3153 3154 3155 3155 3155
3032 3032 3032 3033 3033 3034 3034 3035 3036 3038 3039 3040 3041 3042 3043 3044 3046 3047 3049 3050 3051 3052 3054 3055 3056 3057 3058 3062 3066 3066 3068 3070 3072 3075 3075 3077 3079 3080 3082 3083 3085 3086 3088 3090 3092 3094 3096 3097 3100 3102 3105 3107 3109 3111 3113 3114 3115 3117 3120 3121 3123 3125 3127 3128 3130 3131 3133 3134 3135 3137 3138 3139 3140 3141 3141 3142 3143 3144 3146 3147 3149 3150 3152 3153 3154 3155 3155 3154
3029 3029 3029 3030 3030 3031 3032 3033 3034 3035 3036 3037 3039 3040 3040 3042 3043 3045 3046 3047 3048 3050 3051 3052 3054 3055 3057 3061 3063 3064 3066 3068 3070 3072 3072 3075 3077 3079 3081 3082 3083 3085 3087 3088 3090 3092 3094 3096 3098 3101 3103 3105 3108 3110 3112 3113 3114 3115 3118 3120 3121 3124 3126 3128 3129 3130 3132 3133 3134 3136 3137 3138 3139 3140 3140 3141 3142 3143 3145 3147 3148 3150 3151 3152 3153 3154 3154 3154
3026 3026 3026 3027 3027 3028 3029 3030 3031 3032 3034 3035 3036 3036 3037 3039 3041 3042 3043 3044 3046 3047 3049 3050 3052 3053 3055 3058 3060 3061 3063 3065 3066 3068 3070 3073 3075 3077 3078 3080 3082 3084 3085 3087 3088 3090 3093 3095 3097 3099 3101 3103 3106 3108 3110 3111 3112 3114 3116 3119 3121 3123 3125 3127 3128 3129 3131 3132 3133 3135 3136 3137 3138 3139 3140 3141 3141 3143 3144 3146 3148 3149 3150 3151 3152 3153 3154 3153
3022 3023 3024 3024 3025 3026 3027 3028 3029 3030 3031 3032 3033 3034 3035 3037 3038 3039 3040 3042 3043 3044 3046 3047 3050 3051 3054 3056 3057 3059 3061 3062 3064 3066 3068 3070 3072 3074 3077 3079 3081 3082 3083 3085 3087 3089 3091 3093 3096 3097 3099 3101 3103 3106 3107 3108 3110 3112 3115 3117 3120 3122 3124 3125 3127 3128 3129 3131 3132 3134 3135 3136 3137 3139 3139 3140 3141 3142 3144 3145 3147 3148 3149 3150 3151 3152 3153 3153
3019 3020 3021 3022 3022 3023 3024 3025 3026 3027 3029 3030 3030 3031 3032 3034 3035 3036 3037 3038 3040 3042 3044 3045 3047 3050 3052 3054 3055 3056 3058 3060 3062 3064 3066 3068 3070 3072 3074 3077 3078 3080 3082 3083 3085 3087 3089 3091 3093 3094 3095 3097 3101 3103 3106 3108 3111 3113 3114 3117 3119 3121 3123 3125 3126 3127 3128 3130 3131 3132 3134 3135 3137 3138 3138 3139 3140 3141 3143 3144 3145 3147 3148 3149 3150 3151 3151 3152
3017 3017 3018 3019 3020 3021 3022 3023 3024 3025 3026 3027 3028 3029 3030 3031 3032 3033 3034 3036 3038 3040 3041 3043 3045 3047 3050 3051 3052 3054 3056 3057 3059 3061 3064 3066 3068 3070 3072 3074 3076 3078 3080 3081 3083 3085 3087 3088 3088 3089 3092 3096 3100 3103 3107 3109 3111 3113 3114 3116 3118 3120 3122 3124 3125 3126 3128 3129 3130 3131 3133 3134 3135 3136 3136 3137 3138 3140 3141 3142 3143 3145 3146 3147 3149 3149 3149 3151
3014 3015 3016 3017 3018 3019 3020 3021 3022 3023 3024 3025 3025 3026 3028 3029 3030 3031 3032 3034 3036 3037 3038 3040 3042 3043 3046 3049 3051 3052 3053 3054 3056 3059 3062 3063 3066 3068 3069 3071 3073 3075 3077 3080 3083 3084 3085 3085 3086 3089 3093 3097 3101 3103 3106 3108 3110 3112 3113 3114 3117 3119 3121 3122 3124 3125 3127 3128 3129 3130 3131 3132 3133 3134 3135 3136 3137 3138 3139 3140 3141 3143 3144 3145 3147 3148 3148 3150
3012 3013 3014 3015 3016 3017 3018 3019 3020 3021 3022 3023 3023 3024 3026 3028 3029 3030 3031 3032 3033 3034 3035 3037 3038 3040 3044 3046 3048 3050 3050 3052 3054 3057 3059 3061 3063 3065 3067 3069 3071 3073 3076 3078 3080 3081 3082 3083 3086 3090 3094 3097 3100 3103 3105 3107 3109 3111 3112 3113 3115 3117 3120 3121 3123 3124 3125 3126 3127 3128 3129 3130 3131 3132 3133 3134 3136 3137 3137 3138 3139 3141 3142 3143 3145 3146 3147 3149
3010 3011 3012 3013 3014 3015 3016 3017 3018 3019 3020 3021 3022 3023 3025 3026 3027 3028 3029 3029 3030 3031 3032 3034 3035 3037 3041 3044 3046 3047 3048 3050 3052 3054 3056 3058 3060 3063 3065 3067 3070 3072 3074 3075 3077 3078 3079 3081 3086 3090 3093 3095 3098 3101 3104 3106 3108 3109 3111 3112 3114 3116 3118 3120 3122 3123 3124 3125 3125 3126 3127 3128 3129 3130 3132 3133 3135 3136 3137 3137 3138 3139 3140 3141 3143 3145 3146 3147
3008 3009 3010 3011 3013 3014 3014 3015 3016 3017 3019 3019 3020 3022 3023 3025 3026 3026 3027 3027 3027 3028 3030 3032 3033 3034 3038 3042 3043 3044 3046 3048 3050 3052 3054 3056 3059 3061 3064 3066 3069 3070 3072 3074 3076 3078 3079 3081 3086 3089 3092 3094 3097 3099 3101 3104 3106 3108 3109 3111 3113 3115 3116 3118 3120 3121 3122 3123 3123 3124 3126 3127 3127 3128 3130 3132 3134 3135 3136 3136 3137 3138 3139 3140 3142 3143 3144 3145
3006 3007 3008 3010 3011 3012 3013 3013 3015 3016 3017 3018 3019 3020 3022 3023 3024 3025 3026 3026 3024 3025 3028 3029 3030 3032 3035 3038 3039 3042 3044 3045 3048 3050 3052 3055 3057 3059 3062 3066 3067 3068 3070 3073 3076 3078 3079 3082 3085 3087 3090 3093 3095 3097 3099 3102 3104 3106 3108 3110 3112 3114 3115 3117 3118 3120 3121 3121 3121 3122 3124 3125 3126 3127 3129 3131 3133 3134 3135 3136 3136 3137 3138 3139 3140 3141 3142 3144
3005 3006 3007 3008 3010 3011 3011 3012 3014 3015 3016 3017 3018 3019 3020 3022 3024 3024 3025 3026 3023 3023 3025 3026 3028 3030 3032 3034 3037 3041 3043 3043 3047 3050 3050 3054 3057 3059 3061 3063 3065 3067 3070 3073 3075 3077 3078 3081 3084 3086 3089 3090 3092 3095 3098 3101 3104 3105 3107 3109 3111 3113 3114 3116 3117 3118 3119 3119 3120 3120 3121 3124 3125 3126 3127 3129 3132 3133 3134 3135 3136 3136 3137 3138 3139 3140 3141 3142
3003 3004 3005 3007 3008 3009 3010 3011 3013 3014 3014 3016 3016 3018 3020 3021 3023 3024 3025 3026 3022 3020 3022 3024 3026 3028 3029 3032 3036 3038 3040 3041 3045 3047 3048 3052 3055 3058 3060 3061 3063 3066 3069 3072 3074 3075 3076 3079 3082 3085 3087 3088 3089 3092 3096 3099 3102 3104 3106 3109 3110 3112 3114 3115 3116 3117 3117 3118 3118 3119 3120 3122 3124 3125 3126 3128 3131 3132 3133 3134 3134 3135 3136 3137 3138 3139 3140 3141
3001 3002 3004 3006 3007 3008 3009 3010 3011 3012 3013 3015 3016 3018 3019 3021 3023 3024 3025 3025 3021 3019 3020 3022 3024 3026 3027 3030 3034 3036 3038 3041 3043 3044 3047 3051 3053 3056 3059 3060 3062 3065 3067 3069 3071 3072 3075 3078 3080 3082 3084 3085 3087 3090 3094 3098 3101 3103 3106 3108 3109 3111 3113 3114 3115 3115 3116 3117 3117 3118 3119 3120 3122 3124 3125 3127 3130 3131 3132 3132 3133 3134 3135 3136 3137 3138 3139 3140
2999 3001 3003 3004 3006 3007 3008 3009 3010 3011 3012 3014 3016 3017 3019 3021 3022 3023 3024 3023 3019 3018 3019 3020 3022 3024 3026 3029 3031 3035 3038 3040 3041 3044 3047 3050 3052 3054 3057 3059 3062 3065 3066 3068 3070 3072 3074 3077 3079 3080 3081 3082 3086 3090 3094 3097 3099 3102 3104 3106 3108 3110 3111 3112 3113 3114 3115 3115 3115 3116 3116 3118 3121 3123 3124 3126 3128 3130 3131 3131 3132 3133 3134 3135 3136 3136 3137 3138
2998 2999 3001 3003 3004 3006 3007 3008 3009 3011 3012 3013 3015 3017 3018 3020 3021 3023 3024 3021 3017 3018 3020 3020 3021 3022 3024 3027 3029 3033 3037 3039 3040 3043 3046 3048 3051 3054 3056 3059 3062 3065 3066 3068 3071 3072 3073 3076 3078 3079 3080 3083 3087 3090 3093 3096 3099 3101 3102 3104 3107 3108 3110 3111 3112 3112 3113 3113 3112 3114 3115 3116 3119 3122 3122 3124 3127 3128 3129 3130 3131 3132 3133 3133 3134 3135 3136 3136
2996 2998 3000 3001 3003 3005 3006 3007 3009 3010 3011 3013 3015 3016 3018 3020 3021 3022 3022 3018 3017 3019 3019 3019 3020 3021 3023 3025 3027 3031 3035 3038 3039 3040 3043 3046 3050 3052 3055 3058 3060 3063 3065 3067 3069 3071 3072 3074 3075 3077 3079 3082 3085 3088 3091 3094 3096 3098 3100 3102 3105 3107 3109 3110 3110 3111 3111 3110 3110 3112 3114 3114 3116 3119 3121 3123 3125 3127 3128 3129 3129 3131 3131 3132 3133 3134 3134 3135
2994 2996 2998 3000 3002 3003 3005 3006 3008 3009 3011 3012 3014 3016 3017 3019 3019 3018 3017 3016 3017 3018 3018 3019 3020 3021 3023 3025 3027 3029 3032 3035 3037 3038 3040 3043 3046 3049 3051 3053 3056 3059 3062 3064 3067 3069 3070 3072 3073 3075 3077 3079 3082 3085 3088 3091 3093 3095 3097 3099 3101 3104 3106 3108 3108 3108 3108 3108 3109 3111 3112 3114 3116 3118 3120 3122 3124 3126 3127 3127 3128 3129 3130 3131 3132 3132 3133 3133
2992 2994 2996 2998 3000 3002 3003 3005 3007 3008 3010 3012 3014 3015 3017 3018 3016 3014 3014 3015 3016 3017 3017 3018 3019 3020 3022 3024 3026 3029 3032 3034 3035 3037 3040 3042 3044 3047 3049 3052 3053 3055 3058 3061 3064 3066 3069 3071 3071 3072 3073 3075 3078 3081 3083 3085 3088 3091 3093 3095 3096 3098 3102 3106 3106 3107 3106 3106 3109 3110 3111 3114 3116 3118 3119 3121 3123 3124 3125 3126 3127 3128 3129 3130 3130 3131 3131 3131
2991 2993 2995 2997 2999 3000 3002 3004 3006 3007 3009 3011 3013 3014 3015 3015 3013 3012 3014 3015 3016 3016 3016 3017 3017 3019 3021 3022 3025 3028 3031 3033 3035 3037 3039 3041 3043 3045 3047 3050 3053 3055 3057 3059 3062 3064 3066 3067 3067 3069 3070 3072 3075 3078 3081 3084 3087 3089 3092 3094 3094 3094 3097 3100 3102 3103 3103 3105 3107 3109 3110 3113 3116 3117 3118 3120 3121 3123 3124 3125 3126 3127 3128 3128 3129 3129 3129 3130
2989 2991 2993 2996 2997 2999 3001 3003 3005 3007 3008 3010 3012 3012 3012 3011 3012 3013 3014 3015 3016 3016 3015 3015 3016 3018 3020 3022 3024 3027 3029 3031 3034 3036 3038 3040 3041 3043 3045 3048 3051 3054 3055 3057 3060 3062 3064 3064 3065 3067 3069 3071 3074 3078 3081 3084 3087 3089 3091 3093 3094 3094 3095 3098 3099 3100 3101 3104 3107 3108 3110 3112 3114 3116 3117 3119 3120 3121 3123 3124 3125 3126 3127 3127 3128 3128 3129 3129
2988 2990 2992 2994 2996 2998 3000 3002 3004 3005 3007 3008 3010 3009 3009 3010 3013 3014 3014 3015 3016 3015 3015 3015 3015 3017 3018 3020 3023 3025 3028 3030 3032 3034 3036 3038 3040 3042 3044 3047 3049 3051 3053 3055 3057 3059 3062 3063 3065 3067 3069 3071 3075 3077 3080 3082 3084 3086 3088 3089 3091 3094 3096 3097 3099 3101 3102 3103 3107 3109 3110 3112 3113 3115 3116 3117 3119 3120 3121 3123 3124 3125 3126 3126 3127 3128 3128 3129
2986 2989 2991 2993 2995 2997 2999 3001 3003 3004 3006 3007 3007 3007 3009 3011 3013 3014 3014 3015 3016 3015 3015 3015 3015 3016 3017 3018 3020 3023 3026 3029 3031 3032 3035 3037 3039 3040 3043 3046 3048 3050 3052 3055 3056 3057 3060 3062 3063 3065 3068 3071 3074 3077 3079 3081 3082 3083 3084 3086 3090 3093 3095 3095 3098 3102 3102 3103 3108 3110 3110 3111 3112 3113 3115 3116 3117 3119 3120 3121 3122 3123 3124 3125 3126 3127 3128 3129
2985 2988 2990 2991 2994 2996 2998 3000 3001 3003 3004 3006 3006 3007 3009 3010 3012 3013 3014 3015 3015 3015 3014 3015 3015 3015 3016 3018 3019 3022 3024 3027 3029 3031 3033 3036 3037 3039 3041 3044 3046 3049 3052 3054 3056 3057 3059 3061 3062 3065 3067 3069 3072 3075 3077 3078 3080 3082 3083 3086 3089 3090 3091 3092 3095 3098 3100 3105 3110 3111 3111 3111 3110 3111 3112 3114 3115 3117 3118 3120 3121 3122 3123 3124 3126 3126 3127 3128
2984 2987 2988 2990 2993 2995 2996 2998 2999 3001 3003 3003 3004 3006 3007 3009 3011 3013 3014 3014 3015 3014 3013 3014 3015 3015 3016 3017 3019 3021 3024 3026 3028 3029 3031 3034 3035 3037 3040 3042 3044 3048 3051 3054 3055 3056 3057 3059 3061 3063 3066 3068 3070 3072 3073 3074 3077 3080 3083 3085 3087 3087 3089 3091 3092 3093 3097 3104 3109 3111 3112 3110 3108 3110 3111 3112 3114 3115 3117 3118 3119 3121 3122 3124 3125 3126 3126 3127
2983 2985 2987 2989 2991 2993 2995 2996 2997 2999 3000 3001 3003 3005 3006 3008 3010 3012 3013 3014 3014 3013 3012 3013 3014 3015 3015 3017 3019 3020 3023 3025 3027 3029 3031 3033 3034 3036 3038 3040 3043 3046 3050 3053 3054 3055 3056 3057 3059 3061 3064 3066 3067 3068 3070 3072 3074 3076 3079 3081 3083 3085 3087 3089 3092 3092 3094 3100 3104 3109 3111 3108 3106 3109 3110 3111 3113 3114 3116 3117 3118 3120 3122 3123 3124 3124 3125 3125
2982 2984 2986 2988 2990 2992 2993 2995 2996 2997 2999 3000 3002 3004 3006 3008 3010 3011 3012 3013 3014 3013 3012 3012 3014 3014 3014 3016 3018 3019 3021 3024 3027 3028 3030 3031 3033 3035 3036 3039 3042 3045 3048 3050 3052 3053 3055 3056 3057 3059 3062 3064 3065 3067 3069 3071 3073 3074 3076 3079 3081 3083 3085 3087 3091 3093 3093 3096 3100 3103 3105 3104 3105 3107 3108 3110 3111 3113 3115 3116 3118 3120 3121 3122 3123 3123 3124 3124
2981 2983 2985 2987 2989 2990 2992 2994 2995 2997 2998 2999 3001 3004 3006 3007 3009 3011 3012 3012 3013 3012 3012 3011 3012 3013 3013 3014 3016 3018 3020 3023 3026 3027 3029 3030 3032 3033 3035 3038 3041 3044 3046 3048 3050 3052 3054 3056 3057 3058 3060 3062 3064 3066 3068 3070 3072 3074 3076 3078 3080 3082 3084 3085 3088 3091 3093 3095 3097 3100 3101 3102 3104 3106 3107 3109 3110 3112 3114 3115 3117 3119 3120 3121 3122 3122 3123 3123
2981 2982 2984 2985 2987 2989 2991 2992 2993 2995 2997 2999 3001 3003 3005 3007 3009 3010 3011 3012 3012 3011 3011 3010 3010 3012 3013 3013 3014 3016 3019 3022 3025 3027 3028 3030 3032 3033 3034 3036 3040 3043 3045 3047 3049 3051 3053 3055 3056 3058 3060 3062 3063 3065 3067 3069 3071 3073 3075 3077 3079 3081 3083 3085 3086 3088 3091 3093 3096 3098 3100 3101 3103 3104 3106 3107 3109 3111 3112 3114 3116 3117 3118 3120 3120 3121 3122 3122
2980 2981 2983 2984 2986 2988 2989 2991 2992 2994 2996 2999 3001 3003 3005 3007 3008 3009 3010 3011 3011 3011 3010 3009 3009 3011 3012 3013 3014 3015 3018 3021 3023 3026 3028 3029 3031 3032 3033 3035 3038 3041 3043 3046 3047 3049 3052 3054 3055 3057 3059 3061 3063 3064 3066 3067 3069 3071 3073 3076 3078 3080 3082 3084 3086 3087 3089 3092 3094 3096 3098 3099 3101 3103 3104 3106 3108 3109 3111 3113 3115 3116 3117 3118 3119 3119 3120 3120
2979 2980 2982 2984 2985 2987 2988 2990 2992 2994 2996 2998 3000 3002 3004 3006 3008 3009 3009 3010 3010 3009 3009 3009 3009 3010 3011 3012 3014 3016 3018 3019 3022 3025 3027 3028 3030 3032 3033 3034 3037 3040 3043 3045 3047 3049 3051 3053 3054 3055 3056 3058 3060 3061 3062 3064 3067 3070 3072 3075 3077 3079 3081 3083 3085 3086 3088 3091 3092 3094 3096 3098 3100 3102 3103 3104 3106 3108 3110 3112 3113 3114 3116 3117 3117 3118 3118 3119
2978 2979 2981 2982 2984 2986 2988 2990 2992 2994 2996 2998 3000 3002 3004 3005 3007 3008 3008 3009 3009 3009 3009 3009 3008 3008 3009 3011 3013 3015 3017 3019 3022 3025 3026 3028 3029 3031 3032 3034 3036 3039 3042 3044 3046 3049 3050 3052 3054 3056 3056 3057 3058 3059 3061 3063 3066 3068 3071 3074 3076 3078 3080 3082 3083 3085 3086 3089 3092 3093 3094 3096 3098 3100 3101 3102 3104 3106 3109 3110 3112 3113 3114 3115 3116 3116 3116 3117
2978 2979 2981 2982 2984 2986 2988 2990 2991 2993 2995 2997 2999 3001 3003 3005 3006 3007 3008 3008 3008 3008 3009 3009 3007 3007 3008 3010 3012 3014 3017 3019 3022 3024 3026 3028 3029 3030 3032 3033 3035 3038 3040 3043 3045 3047 3049 3051 3053 3055 3057 3058 3058 3060 3061 3063 3066 3068 3070 3073 3075 3077 3079 3081 3082 3084 3086 3088 3090 3092 3094 3095 3096 3098 3099 3100 3102 3105 3107 3109 3110 3111 3112 3113 3114 3114 3115 3115
2978 2980 2981 2983 2985 2986 2988 2990 2992 2993 2995 2997 2999 3001 3003 3004 3006 3007 3007 3008 3008 3008 3008 3008 3007 3007 3008 3010 3012 3013 3016 3019 3021 3023 3025 3027 3029 3030 3031 3033 3035 3037 3040 3042 3044 3046 3048 3050 3053 3055 3056 3058 3059 3060 3062 3063 3066 3068 3070 3072 3074 3076 3078 3080 3082 3083 3085 3087 3089 3091 3093 3094 3095 3097 3098 3099 3101 3104 3105 3107 3108 3110 3111 3112 3113 3113 3114 3114
2978 2980 2981 2983 2985 2986 2988 2990 2992 2994 2995 2997 2999 3001 3003 3004 3006 3007 3007 3008 3008 3008 3009 3009 3008 3007 3008 3010 3011 3013 3015 3017 3019 3022 3024 3026 3028 3030 3031 3033 3035 3037 3039 3041 3043 3045 3047 3049 3052 3054 3056 3058 3059 3061 3062 3064 3066 3067 3069 3071 3073 3075 3077 3079 3081 3082 3084 3086 3087 3089 3091 3092 3094 3095 3096 3098 3101 3103 3104 3105 3107 3108 3109 3110 3111 3112 3112 3113
2978 2979 2981 2983 2985 2986 2988 2990 2992 2993 2995 2997 2999 3001 3003 3005 3006 3007 3008 3008 3009 3009 3009 3009 3009 3008 3008 3010 3011 3013 3015 3017 3018 3020 3023 3025 3027 3029 3031 3033 3034 3036 3038 3040 3042 3044 3046 3048 3051 3053 3055 3057 3059 3061 3062 3064 3066 3067 3069 3071 3072 3074 3076 3078 3079 3081 3082 3084 3086 3088 3089 3090 3092 3094 3095 3097 3099 3101 3103 3104 3106 3107 3108 3109 3110 3111 3111 3112
2977 2979 2980 2982 2985 2986 2988 2990 2992 2993 2995 2997 2999 3001 3003 3005 3006 3008 3009 3009 3010 3010 3010 3010 3010 3009 3009 3010 3012 3013 3015 3017 3019 3021 3023 3025 3027 3029 3031 3033 3035 3036 3038 3040 3042 3044 3046 3048 3050 3052 3054 3057 3059 3061 3062 3064 3066 3068 3069 3070 3072 3073 3075 3077 3078 3080 3081 3082 3084 3086 3087 3089 3090 3092 3094 3096 3098 3100 3101 3103 3105 3106 3107 3108 3109 3109 3110 3111
2978 2979 2981 2983 2985 2986 2988 2990 2992 2993 2995 2997 3000 3002 3003 3005 3006 3008 3009 3010 3011 3011 3011 3011 3011 3011 3011 3011 3013 3014 3016 3018 3020 3022 3025 3027 3028 3030 3031 3033 3035 3037 3038 3040 3042 3044 3046 3047 3049 3051 3053 3057 3059 3060 3062 3065 3066 3068 3069 3070 3071 3073 3074 3076 3077 3079 3080 3082 3083 3084 3086 3087 3089 3090 3092 3094 3097 3099 3101 3102 3104 3105 3106 3107 3108 3109 3109 3110